Погода в Архангельском

Россия / Тульская область     53°19′48″N   37°06′35″E
темп.,
°C
ветер,
м/с
пор.,
м/с
влажн.,
%
обл.,
%
осадки,
мм/ч
давл.,
гПа
погр.,
м
12 апреля, пн
пн1200:00+6всв3969100 0.0 1030172
03:00+5всв41366100 0.0 1031277
06:00+5всв61460100 0.0 1029348
09:00+6всв61382100 0.4 1029408
12:00+12в6972100 0.0 1027502
15:00+15в71064100 0.0 1025760
18:00+16вюв6116158 0.0 1024424
21:00+13вюв615687 0.0 1025315
13 апреля, вт
вт1300:00+11юв5147175 0.0 1025266
03:00+9юв41280100 0.0 1025187
06:00+8юв4108094 0.0 1025151
09:00+13юв6115952 0.0 1025371
12:00+17юв794750 0.0 1024899
15:00+19ююв793520 0.0 10231754
18:00+17юв594119 0.0 1022280
21:00+13юв412583 0.0 1022204
14 апреля, ср
ср1400:00+11юв5136073 0.0 1022269
03:00+9юв41270100 0.0 1021215
06:00+8юв497496 0.0 1021145
09:00+13юв595587 0.0 1020382
12:00+17юв584061 0.0 1019916
15:00+18ююв6732100 0.0 10181728
18:00+16юв364296 0.0 1017143
21:00+13юв3651100 0.0 1017107
15 апреля, чт
чт1500:00+11зсз1166100 0.0 101710
03:00+10юв2271100 0.0 101713
06:00+9ююв1175100 0.0 101710
09:00+12всв1163100 0.0 1017153
12:00+15всв3449100 0.0 1016597
15:00+17в4640100 0.0 10141536
18:00+16в3650100 0.0 1013120
21:00+13вюв5106490 0.0 1014288
16 апреля, пт
пт1600:00+10в378324 0.0 1014117
03:00+9в358556 0.0 101468
06:00+10в4881100 0.0 1014163
09:00+13вюв477095 0.2 1014517
12:00+14вюв676686 1.1 10151009
15:00+15вюв5658100 2.1 10151336
18:00+14в5765100 0.6 1016351
21:00+12в227598 1.3 101728